Flag for Comoros Weather past 2 weeks in Mutsamudu, Comoros

Now
79 °F

Passing clouds.


Feels Like: 83 °F
Forecast: 80 / 83 °F
Wind: No wind

Location: Dzaoudzi / Pamanzi Mayotte

Current Time: Apr 1, 2015 at 9:42:46 PM

Latest Report: Apr 1, 2015 at 9:00 PM


Visibility: N/A

Pressure: 29.89 "Hg

Humidity: 94%

Dew point: 77 °F

Location of MutsamuduLocation

Historic Weather in Mutsamudu — Graph

°F

Mutsamudu temperature yesterday

Maximum temperature yesterday: 88 °F (at 9:30 AM)
Minimum temperature yesterday: 82 °F (at 12:00 AM)
Average temperature yesterday: 85 °F

Past Weeks' High & Low Weather Summary

 TemperatureHumidityPressure
High90 °F (Mar 20, 1:30 PM)94% (Mar 21, 1:30 AM)30.01 "Hg (Mar 21, 1:30 AM)
Low75 °F (Mar 21, 8:04 AM)55% (Mar 28, 2:00 PM)29.80 "Hg (Apr 1, 2:30 AM)
Average84 °F79%29.90 "Hg
* Reported Mar 17 8:00 PM — Apr 1 8:30 PM, Mutsamudu, Weather by CustomWeather, © 2015

Note: Actual official high and low records may vary slightly from our data, if they occured in-between our weather recording intervals... More about our weather records

Advertising

Mutsamudu weather history for previous 24 hours

 ConditionsComfort  
Time TempWeatherWind HumidityBarometerVisibility
8:30 PM
Wed, Apr 1
79 °FPassing clouds.2 mph94%29.89 "HgN/A
8:00 PM79 °FWarm.No wind94%29.86 "HgN/A
7:30 PM79 °FWarm.3 mph89%29.86 "HgN/A
7:00 PM79 °FPassing clouds.3 mph89%29.86 "HgN/A
6:30 PM79 °FWarm.No wind89%29.83 "HgN/A
6:06 PM81 °FPassing clouds.2 mph84%29.83 "HgN/A
5:39 PM81 °FScattered clouds.3 mph84%29.83 "HgN/A
5:00 PM81 °FScattered clouds.5 mph84%29.83 "HgN/A
4:30 PM79 °FScattered clouds.7 mph89%29.83 "HgN/A
4:00 PM79 °FPartly sunny.5 mph94%29.83 "HgN/A
3:30 PM79 °FSprinkles. Partly sunny.8 mph89%29.83 "Hg2 mi
3:05 PM79 °FThunderstorms. Partly sunny.12 mph94%29.83 "Hg1 mi
3:04 PM79 °FThunderstorms. Partly sunny.12 mph89%29.83 "Hg1 mi
2:30 PM84 °FRain showers. Partly sunny.12 mph74%29.83 "HgN/A
2:00 PM84 °FThunderstorms. Scattered clouds.6 mph79%29.83 "HgN/A
1:30 PM86 °FScattered showers. Scattered clouds.6 mph70%29.83 "HgN/A
1:04 PM84 °FBroken clouds.8 mph79%29.86 "HgN/A
12:30 PM82 °FScattered showers. Broken clouds.14 mph79%29.86 "Hg6 mi
12:00 PM84 °FThundershowers. Broken clouds.14 mph74%29.86 "Hg5 mi
11:30 AM88 °FScattered showers. Broken clouds.7 mph75%29.86 "HgN/A
11:00 AM88 °FBroken clouds.7 mph75%29.89 "HgN/A
10:34 AM88 °FPartly sunny.6 mph66%29.89 "HgN/A
10:00 AM86 °FPartly sunny.8 mph70%29.89 "HgN/A
9:30 AM86 °FPartly sunny.7 mph70%29.92 "HgN/A
9:00 AM84 °FScattered clouds.6 mph79%29.92 "HgN/A
8:30 AM84 °FScattered clouds.6 mph79%29.89 "HgN/A
8:00 AM82 °FScattered clouds.5 mph84%29.89 "HgN/A
7:30 AM82 °FPassing clouds.5 mph84%29.86 "HgN/A
7:00 AM82 °FPassing clouds.3 mph84%29.86 "HgN/A
6:30 AM82 °FPassing clouds.3 mph84%29.83 "HgN/A
6:00 AM82 °FPassing clouds.3 mph84%29.83 "HgN/A
5:30 AM82 °FPassing clouds.3 mph84%29.83 "HgN/A
5:00 AM82 °FPassing clouds.6 mph84%29.83 "HgN/A
4:30 AM82 °FWarm.6 mph79%29.83 "HgN/A
4:00 AM82 °FWarm.5 mph79%29.80 "HgN/A
3:30 AM82 °FPassing clouds.5 mph84%29.80 "HgN/A
3:00 AM82 °FPassing clouds.5 mph84%29.80 "HgN/A
2:30 AM82 °FWarm.7 mph84%29.80 "HgN/A
2:00 AM82 °FWarm.6 mph84%29.83 "HgN/A
1:30 AM82 °FPassing clouds.6 mph84%29.83 "HgN/A
1:00 AM82 °FPassing clouds.6 mph84%29.83 "HgN/A
12:30 AM82 °FWarm.6 mph84%29.83 "HgN/A
12:00 AM82 °FPassing clouds.7 mph84%29.86 "HgN/A
11:30 PM
Tue, Mar 31
82 °FPassing clouds.7 mph89%29.86 "HgN/A
11:00 PM82 °FPassing clouds.7 mph84%29.86 "HgN/A
10:30 PM82 °FPassing clouds.6 mph89%29.89 "HgN/A
10:00 PM82 °FLight rain. Partly cloudy.5 mph89%29.89 "HgN/A
9:30 PM84 °FPassing clouds.6 mph84%29.89 "HgN/A
9:00 PM84 °FPartly cloudy.6 mph79%29.89 "HgN/A
Weather by CustomWeather, © 2015

See weather overviewHow to use our weather pages